Location: Street
(51.1247°N, 2.7429°W)
Time: 08:28:23
(UTC+01:00)

PCSat - Pass Details

Date: 29 March 2023
Orbit: 783 x 794 km, 67.1° (Epoch: 29 May)

Event Time Altitude Azimuth Distance (km) Brightness Sun altitude
Rises 22:10:44 0° 312° (NW) 3,297 14.3 -22.7°
Reaches altitude 10° 22:14:09 10° 334° (NNW) 2,369 12.9 -23.1°
Maximum altitude 22:17:28 16° 12° (NNE) 1,970 11.9 -23.5°
Drops below altitude 10° 22:20:49 10° 50° (NE) 2,370 11.9 -23.9°
Enters shadow 22:21:19 - 55° (NE) 2,489 12.0 -23.9°
